This is the latest recevied weather packets stored in our database for station/object 4S6DRJ-13. If no packets are shown the sender has not sent any weather packets the latest 10 day(s).
| Time | Temp. | Humidity | Pressure | Rain* | Wind** | Luminosity | Snow |
|---|---|---|---|---|---|---|---|
| 1787963026 | 27.78° C | 86% | 1009.2 hPa | 0 mm | 0.89 m/s, 254° | 0 W/m² | - |
| 1787962965 | 27.78° C | 86% | 1009.3 hPa | 0 mm | 0.45 m/s, 262° | 0 W/m² | - |
| 1787962904 | 27.78° C | 85% | 1009.2 hPa | 0 mm | 0.45 m/s, 307° | 0 W/m² | - |
| 1787962842 | 27.78° C | 85% | 1009.2 hPa | 0 mm | 0.89 m/s, 240° | 0 W/m² | - |
| 1787962781 | 27.78° C | 85% | 1009.2 hPa | 0 mm | 0.89 m/s, 229° | 0 W/m² | - |
| 1787962721 | 27.78° C | 85% | 1009.2 hPa | 0 mm | 1.34 m/s, 238° | 0 W/m² | - |
| 1787962659 | 27.78° C | 85% | 1009.3 hPa | 0 mm | 1.34 m/s, 234° | 0 W/m² | - |
| 1787962598 | 27.78° C | 85% | 1009.4 hPa | 0 mm | 0 m/s | 0 W/m² | - |
| 1787962538 | 27.78° C | 85% | 1009.1 hPa | 0 mm | 1.34 m/s, 203° | 0 W/m² | - |
| 1787962477 | 27.78° C | 85% | 1009.2 hPa | 0 mm | 1.79 m/s, 268° | 0 W/m² | - |
| 1787962416 | 27.78° C | 85% | 1009.2 hPa | 0 mm | 0.45 m/s, 236° | 0 W/m² | - |
| 1787962355 | 27.78° C | 85% | 1009.1 hPa | 0 mm | 0.45 m/s, 149° | 0 W/m² | - |
| 1787962294 | 27.78° C | 85% | 1008.9 hPa | 0 mm | 0.89 m/s, 221° | 0 W/m² | - |
| 1787962233 | 27.78° C | 85% | 1009.3 hPa | 0 mm | 0.89 m/s, 254° | 0 W/m² | - |
| 1787962172 | 27.78° C | 85% | 1009.2 hPa | 0 mm | 0.45 m/s, 275° | 0 W/m² | - |
| 1787962111 | 27.78° C | 85% | 1009 hPa | 0 mm | 0.89 m/s, 183° | 0 W/m² | - |
| 1787962050 | 27.78° C | 85% | 1009 hPa | 0 mm | 1.34 m/s, 212° | 0 W/m² | - |
| 1787961988 | 27.78° C | 85% | 1009.1 hPa | 0 mm | 0.89 m/s, 152° | 0 W/m² | - |
| 1787961928 | 27.78° C | 85% | 1009 hPa | 0 mm | 1.34 m/s, 214° | 0 W/m² | - |
| 1787961867 | 27.78° C | 85% | 1009 hPa | 0 mm | 0.89 m/s, 234° | 0 W/m² | - |
| 1787961806 | 27.78° C | 85% | 1009 hPa | 0 mm | 0.45 m/s, 260° | 0 W/m² | - |
| 1787961744 | 27.78° C | 85% | 1008.9 hPa | 0 mm | 0.45 m/s, 242° | 0 W/m² | - |
| 1787961684 | 27.78° C | 85% | 1009 hPa | 0 mm | 0 m/s | 0 W/m² | - |
| 1787961623 | 27.78° C | 85% | 1009.1 hPa | 0 mm | 1.34 m/s, 221° | 0 W/m² | - |
| 1787961562 | 27.78° C | 85% | 1009 hPa | 0 mm | 0.45 m/s, 213° | 0 W/m² | - |
* Rain latest hour (hover to see other rain measurements)
** Current wind speed in m/s (hover to see current wind gust speed)